{"data":{"norad_id":47354,"intl_designator":"2021-005F","name":"STARLINK-2046","alt_names":[],"object_type":"PAYLOAD","status":"ACTIVE","operator":null,"country":"US","launch_date":"2021-01-20","launch_site_code":"AFETR","launch_vehicle":null,"mission":null,"orbit_class":"UNKNOWN","rcs_meters":null,"size_class":null,"mass_kg":null,"dimensions":null,"purposes":["comms"],"wikipedia_slug":null,"has_3d_model":false,"image_url":null,"decayed_at":null,"tle_current":{"epoch":"2026-05-24T22:33:07.455168Z","epoch_age_seconds":84287,"freshness":"FRESH","line1":"1 47354U 21005F   26144.93966962  .00001462  00000+0  58858-4 0  9998","line2":"2 47354  53.1623  29.3381 0001278  91.9564 268.1584 15.31712359295257","mean_motion":15.31712359,"eccentricity":0.0001278,"inclination_deg":53.1623,"raan_deg":29.3381,"arg_perigee_deg":91.9564,"mean_anomaly_deg":268.1584,"bstar":5.8858e-5,"rev_number":29525,"period_min":94.01242939243,"perigee_km":469.82787216581,"apogee_km":471.57843570915,"semimajor_km":6848.8401539375,"source":"CELESTRAK","updated_at":"2026-05-25T13:38:16.524166Z"}}}